Weather History for Erie, CO

Change the Weather History Date:

Wednesday, March 20, 2013

  Actual Average (KBJC) Record (KBJC)
Temperature  
Mean Temperature 34 °F -  
Max Temperature 51 °F 52 °F 80 °F (1997)
Min Temperature 17 °F 32 °F 17 °F (1998)
Degree Days  
Heating Degree Days 31    
Moisture  
Dew Point 19 °F    
Average Humidity 62    
Maximum Humidity 90    
Minimum Humidity 28    
Precipitation  
Precipitation 0.00 in - - ()
Sea Level Pressure  
Sea Level Pressure 30.02 in    
Wind  
Wind Speed 1 mph (NNE)    
Max Wind Speed 9 mph    
Max Gust Speed -    
Visibility 10 miles    
Events      
Averages and records for this station are not official NWS values.
T = Trace of Precipitation, MM = Missing Value Source: NWS Daily Summary

Daily Weather History Graph

Daily Weather History Graph

Search for Another Location

Airport:

Trip Planner

Search our weather history database for the weather conditions in past years. The results will help you decide how hot, cold, wet, or windy it might be!

Date:

Astronomy

Mar. 20, 2013 Rise Set
Actual Time 7:03 AM MDT 7:12 PM MDT
Civil Twilight 6:36 AM MDT 7:39 PM MDT
Nautical Twilight 6:04 AM MDT 8:11 PM MDT
Astronomical Twilight 5:32 AM MDT 8:43 PM MDT
Moon 12:50 PM MDT (3/20) 2:44 AM MDT (3/20)
Length of Visible Light 13h 03m
Length of Day
12h 09m
First Quarter, 60% of the Moon is Illuminated
Mar 20
First Quarter
Mar 27
Full
Apr 2
Last Quarter
Apr 10
New
Apr 18
First Quarter

Hourly Weather History & Observations

Time (MDT) Temp. Windchill Dew Point Humidity Pressure Visibility Wind Dir Wind Speed Gust Speed Precip Events Conditions
12:16 AM 25.0 °F - 18.3 °F 76% 30.34 in 10.0 mi Calm Calm - N/A   Clear
12:36 AM 24.4 °F 20.1 °F 18.0 °F 76% 30.33 in 10.0 mi SW 3.5 mph - N/A   Clear
12:56 AM 22.1 °F - 18.0 °F 84% 30.32 in 10.0 mi Calm Calm - N/A   Clear
1:16 AM 22.5 °F - 17.8 °F 82% 30.31 in 10.0 mi Calm Calm - N/A   Clear
1:36 AM 21.6 °F - 17.2 °F 83% 30.30 in 10.0 mi Calm Calm - N/A   Clear
1:56 AM 20.5 °F - 16.3 °F 84% 30.29 in 10.0 mi Calm Calm - N/A   Clear
2:16 AM 20.3 °F - 16.9 °F 87% 30.28 in 10.0 mi Calm Calm - N/A   Clear
2:36 AM 20.3 °F - 16.7 °F 86% 30.28 in 10.0 mi Calm Calm - N/A   Clear
2:56 AM 20.3 °F - 17.1 °F 87% 30.27 in 10.0 mi Calm Calm - N/A   Clear
3:16 AM 20.7 °F - 17.1 °F 86% 30.26 in 10.0 mi Calm Calm - N/A   Clear
3:36 AM 19.0 °F - 16.5 °F 90% 30.25 in 10.0 mi Calm Calm - N/A   Clear
3:56 AM 19.2 °F - 16.5 °F 89% 30.24 in 10.0 mi Calm Calm - N/A   Clear
4:16 AM 18.5 °F - 15.6 °F 89% 30.23 in 10.0 mi Calm Calm - N/A   Clear
4:36 AM 18.7 °F - 15.6 °F 88% 30.22 in 10.0 mi Calm Calm - N/A   Clear
4:56 AM 18.3 °F - 15.6 °F 89% 30.22 in 10.0 mi Calm Calm - N/A   Clear
5:16 AM 18.5 °F - 15.6 °F 89% 30.21 in 10.0 mi Calm Calm - N/A   Clear
5:36 AM 17.4 °F - 14.9 °F 90% 30.21 in 10.0 mi Calm Calm - N/A   Clear
5:56 AM 18.0 °F - 15.1 °F 88% 30.20 in 10.0 mi Calm Calm - N/A   Clear
6:16 AM 18.1 °F - 15.1 °F 88% 30.20 in 10.0 mi Calm Calm - N/A   Clear
6:36 AM 17.8 °F - 15.1 °F 89% 30.19 in 10.0 mi Calm Calm - N/A   Clear
6:56 AM 18.3 °F - 15.4 °F 89% 30.18 in 10.0 mi Calm Calm - N/A   Clear
7:16 AM 18.1 °F - 15.3 °F 88% 30.17 in 10.0 mi Calm Calm - N/A   Clear
7:36 AM 19.8 °F - 16.3 °F 87% 30.17 in 10.0 mi Calm Calm - N/A   Clear
7:56 AM 22.1 °F - 18.9 °F 87% 30.16 in 10.0 mi Calm Calm - N/A   Clear
8:16 AM 23.7 °F - 20.5 °F 87% 30.15 in 10.0 mi Calm Calm - N/A   Clear
8:56 AM 25.5 °F - 21.6 °F 85% 30.14 in 10.0 mi Calm Calm - N/A   Clear
9:16 AM 26.8 °F - 22.3 °F 83% 30.13 in 10.0 mi Calm Calm - N/A   Clear
9:56 AM 29.8 °F 26.3 °F 22.1 °F 73% 30.11 in 10.0 mi NNE 3.5 mph - N/A   Clear
10:16 AM 30.2 °F - 21.7 °F 71% 30.09 in 10.0 mi Calm Calm - N/A   Clear
10:36 AM 30.6 °F - 21.6 °F 69% 30.08 in 10.0 mi Calm Calm - N/A   Clear
10:56 AM 31.8 °F 28.5 °F 21.9 °F 67% 30.07 in 10.0 mi NE 3.5 mph - N/A   Clear
11:16 AM 33.6 °F - 21.6 °F 61% 30.05 in 10.0 mi Calm Calm - N/A   Clear
11:36 AM 35.8 °F - 20.5 °F 54% 30.04 in 10.0 mi Calm Calm - N/A   Clear
11:56 AM 37.4 °F - 20.3 °F 50% 30.02 in 10.0 mi Calm Calm - N/A   Clear
12:16 PM 38.1 °F - 19.2 °F 47% 30.00 in 10.0 mi Calm Calm - N/A   Clear
12:36 PM 40.1 °F - 18.5 °F 42% 29.98 in 10.0 mi Calm Calm - N/A   Clear
12:56 PM 42.6 °F - 19.4 °F 39% 29.97 in 10.0 mi Calm Calm - N/A   Clear
1:16 PM 45.1 °F 42.0 °F 18.3 °F 34% 29.96 in 10.0 mi North 5.8 mph - N/A   Clear
1:36 PM 44.1 °F 39.5 °F 19.6 °F 38% 29.94 in 10.0 mi NNE 8.1 mph - N/A   Clear
1:56 PM 45.3 °F 41.6 °F 19.9 °F 36% 29.92 in 10.0 mi NNW 6.9 mph - N/A   Clear
2:16 PM 47.5 °F - 19.9 °F 34% 29.91 in 10.0 mi North 4.6 mph - N/A   Clear
2:36 PM 48.2 °F - 19.8 °F 32% 29.90 in 10.0 mi NNW 9.2 mph - N/A   Clear
2:56 PM 47.3 °F - 18.9 °F 32% 29.88 in 10.0 mi NNE 5.8 mph - N/A   Clear
3:16 PM 47.7 °F - 18.9 °F 32% 29.87 in 10.0 mi NNE 8.1 mph - N/A   Clear
3:36 PM 47.5 °F - 18.5 °F 32% 29.86 in 10.0 mi NNE 4.6 mph - N/A   Clear
3:56 PM 48.9 °F - 18.1 °F 30% 29.85 in 10.0 mi NNE 6.9 mph - N/A   Clear
4:16 PM 50.0 °F - 17.8 °F 28% 29.85 in 10.0 mi Calm Calm - N/A   Clear
4:36 PM 51.1 °F - 18.7 °F 28% 29.83 in 10.0 mi Calm Calm - N/A   Clear
4:56 PM 51.1 °F - 18.5 °F 28% 29.83 in 10.0 mi NE 4.6 mph - N/A   Clear
5:16 PM 51.1 °F - 19.6 °F 29% 29.82 in 10.0 mi NE 5.8 mph - N/A   Clear
5:36 PM 50.4 °F - 20.3 °F 31% 29.82 in 10.0 mi NNE 4.6 mph - N/A   Clear
5:56 PM 49.1 °F - 20.7 °F 33% 29.82 in 10.0 mi NE 5.8 mph - N/A   Clear
6:16 PM 47.8 °F - 20.3 °F 34% 29.81 in 10.0 mi Calm Calm - N/A   Clear
6:36 PM 47.3 °F - 20.5 °F 35% 29.80 in 10.0 mi NE 4.6 mph - N/A   Clear
6:56 PM 44.8 °F 43.3 °F 21.9 °F 40% 29.80 in 10.0 mi NNE 3.5 mph - N/A   Clear
7:16 PM 43.0 °F 38.2 °F 22.1 °F 44% 29.80 in 10.0 mi NNE 8.1 mph - N/A   Scattered Clouds
7:36 PM 42.6 °F - 21.9 °F 44% 29.80 in 10.0 mi Calm Calm - N/A   Clear
7:56 PM 41.0 °F 39.0 °F 22.3 °F 47% 29.79 in 10.0 mi NE 3.5 mph - N/A   Clear
8:16 PM 38.5 °F - 21.9 °F 51% 29.79 in 10.0 mi Calm Calm - N/A   Clear
8:36 PM 38.1 °F - 23.2 °F 55% 29.79 in 10.0 mi Calm Calm - N/A   Clear
8:56 PM 36.7 °F 34.1 °F 24.4 °F 61% 29.78 in 10.0 mi SSW 3.5 mph - N/A   Clear
9:16 PM 35.8 °F - 23.7 °F 62% 29.77 in 10.0 mi Calm Calm - N/A   Clear
9:36 PM 36.5 °F - 23.0 °F 58% 29.77 in 10.0 mi Calm Calm - N/A   Clear
9:56 PM 36.1 °F - 23.0 °F 59% 29.76 in 10.0 mi Calm Calm - N/A   Clear
10:16 PM 34.7 °F - 22.6 °F 61% 29.76 in 10.0 mi Calm Calm - N/A   Clear
10:36 PM 33.6 °F 30.6 °F 23.4 °F 66% 29.75 in 10.0 mi NW 3.5 mph - N/A   Clear
10:56 PM 36.5 °F - 23.2 °F 59% 29.75 in 10.0 mi Calm Calm - N/A   Clear
11:36 PM 37.6 °F - 22.6 °F 55% 29.73 in 10.0 mi Calm Calm - N/A   Clear